Temperature
14 14 14 14 13 13 13 13 13 13 13 13 13 12 12 12 12 12 12 12 12 12 12 11 11 11 11 11 11 10 10 10 10 10 10 10 10 10 10 10 10 10 10
13 14 13 13 13 13 13 12 12 12 12 12 12 13 13 13 13 12 12 12 12 12 12 11 11 11 11 10 10 10 10 10 10 10 9 9 10 10 10 10 10 10 10
12 13 13 12 12 12 12 12 12 12 12 12 12 12 12 12 12 12 12 12 12 12 12 12 11 11 11 11 11 10 10 10 10 10 10 10 10 10 10 10 10 10 10
12 12 12 12 12 12 12 12 12 12 12 12 12 12 12 12 12 12 12 12 12 12 12 12 11 11 11 11 11 11 11 10 10 10 10 10 10 10 10 10 10 10 10
12 11 11 11 11 11 11 11 11 11 11 12 12 12 12 12 12 12 12 12 12 12 12 12 12 11 11 11 11 11 10 10 11 10 10 10 10 10 10 9 10 10 10
11 11 11 11 11 11 11 11 11 11 11 11 12 12 12 12 12 12 12 12 12 12 12 12 12 12 11 11 11 11 11 10 10 10 10 10 10 10 10 10 10 10 10
11 11 10 10 10 10 10 10 11 11 11 11 12 12 12 12 12 12 12 12 12 12 12 12 12 12 12 11 11 11 11 10 10 10 10 10 10 10 10 10 9 9 9
10 10 10 10 10 10 10 10 10 11 11 11 11 12 12 12 12 12 12 12 12 12 12 12 12 12 12 11 11 11 11 10 10 10 10 10 10 10 10 9 9 9 9
10 10 9 9 9 9 10 10 10 10 10 11 11 12 12 12 12 12 12 12 12 12 12 12 12 11 11 11 11 11 11 11 10 10 10 10 10 10 9 9 9 9 8
9 9 9 9 9 9 9 9 10 10 10 10 11 11 12 12 12 12 12 12 12 11 12 11 12 11 11 11 11 11 11 10 10 10 10 10 10 10 9 9 9 9 8
9 9 9 9 9 9 9 9 9 9 10 10 10 11 11 11 12 12 12 12 11 11 12 12 12 11 11 11 11 11 11 10 10 10 10 10 10 9 9 9 9 9 8
8 8 8 8 8 8 8 8 9 9 9 10 10 10 11 11 11 11 12 11 11 11 11 11 11 11 11 11 11 11 11 11 10 10 10 10 10 9 9 9 9 9 8
8 8 8 8 8 8 8 8 8 9 9 9 10 10 10 11 11 11 11 11 11 11 11 11 11 11 11 11 11 11 11 11 11 10 10 10 10 9 9 9 9 9 8
7 7 7 7 7 7 7 8 8 8 8 8 9 10 10 10 11 11 11 11 11 11 11 11 11 11 11 11 11 11 11 11 10 10 10 10 10 9 9 9 9 9 8
7 7 6 6 6 7 7 7 7 7 8 8 8 9 10 10 10 10 10 11 11 11 11 11 11 11 11 11 11 11 10 10 10 10 9 9 9 9 9 9 9 8 8
6 6 6 6 6 6 6 6 6 7 7 7 8 8 9 9 10 10 10 10 10 10 11 10 10 10 10 11 11 10 10 10 10 9 9 9 9 9 9 8 8 8 8
6 5 5 5 5 5 5 5 6 6 6 7 7 8 8 9 9 9 9 10 10 10 10 10 10 10 10 10 10 10 10 9 9 9 9 9 9 9 8 8 8 8 7
5 5 4 4 4 4 4 5 5 5 6 6 7 7 8 8 8 9 9 10 10 10 10 10 10 10 10 10 10 10 9 9 9 9 9 9 9 9 8 8 8 7 7
4 4 4 4 4 4 4 4 4 5 5 5 6 6 7 8 8 8 9 9 9 9 10 10 10 10 10 10 10 9 9 9 9 9 9 8 8 8 8 8 7 7 7
4 3 3 3 3 3 3 3 3 4 4 5 5 6 6 7 7 8 8 9 9 9 9 9 9 9 10 10 10 9 9 8 8 8 8 8 8 8 7 7 7 7 7
3 3 3 3 3 3 3 3 3 3 4 4 5 5 6 6 7 7 8 8 8 9 9 9 9 9 9 9 9 9 8 8 8 8 8 8 7 7 7 7 7 7 6
3 2 2 2 2 2 2 2 3 3 3 4 4 5 5 6 6 7 7 8 8 8 8 8 8 8 9 9 9 9 8 8 8 8 7 7 7 7 7 6 6 6 5
2 2 2 2 2 2 2 2 2 2 3 3 4 4 5 5 6 6 7 7 7 7 7 8 8 8 8 8 8 8 8 8 7 7 7 7 6 6 6 6 5 5 5
1 1 1 1 1 1 1 2 2 2 2 3 3 3 4 5 5 6 6 6 6 7 7 7 7 7 7 7 8 8 7 7 7 7 6 6 6 6 5 5 5 5 4
1 1 1 1 1 1 1 1 1 2 2 2 3 3 4 4 5 5 5 5 6 6 6 6 6 7 7 7 7 7 7 7 7 6 6 5 5 5 5 5 4 4 4
0 0 0 0 0 0 1 1 1 1 1 2 2 2 3 3 4 4 5 5 5 5 6 6 6 6 6 7 7 7 7 6 6 6 6 5 5 5 4 4 4 4 3
Wind_Speed
10 8 7 7 7 8 9 10 11 11 10 8 9 9 9 8 7 7 12 14 14 14 11 9 9 9 8 8 8 6 6 4 4 3 1 2 3 4 4 3 3 4 7
8 6 5 6 8 8 10 10 12 12 11 9 9 7 8 8 7 7 10 14 14 14 12 11 9 9 8 9 8 6 5 4 5 4 3 1 2 4 5 4 4 4 5
6 5 5 5 6 7 9 10 10 12 12 10 7 7 6 6 7 8 9 11 14 14 12 12 10 9 9 9 9 8 8 6 5 5 4 3 3 2 3 5 4 4 4
4 3 3 5 6 7 6 8 9 11 12 11 10 11 10 9 8 9 9 11 13 13 13 13 12 10 8 9 9 8 6 7 6 5 4 3 3 2 1 3 4 5 5
3 3 4 3 4 6 5 5 7 9 11 12 12 12 10 8 7 9 11 12 12 13 14 13 12 11 9 10 10 9 8 7 6 5 4 3 1 2 3 3 3 3 4
2 2 2 1 2 3 4 5 6 9 10 11 12 12 12 11 12 11 11 12 10 11 14 13 12 11 10 10 10 9 10 8 7 6 5 4 3 4 3 4 3 3 4
1 1 1 1 2 2 3 5 6 7 10 11 12 12 12 13 14 13 12 12 11 10 14 13 12 11 10 10 10 10 10 10 9 8 6 5 5 4 4 3 3 2 2
3 2 1 2 2 2 2 4 6 6 8 10 12 12 12 10 11 12 11 13 12 12 13 14 13 12 12 12 10 9 9 9 9 9 8 6 6 5 4 4 3 2 2
4 3 2 2 2 2 3 4 5 6 8 8 9 11 12 11 11 11 10 11 11 12 14 14 14 13 13 12 11 9 10 9 9 9 9 7 5 5 4 4 4 4 3
4 4 3 2 2 1 2 4 4 5 6 7 7 8 10 12 11 10 11 11 13 13 15 15 15 14 13 13 12 10 9 10 9 8 9 8 6 5 5 5 4 4 5
5 5 4 4 3 2 2 4 4 3 4 5 6 6 7 10 11 10 11 12 11 13 15 16 15 15 14 14 13 12 12 12 10 9 10 10 8 6 6 5 5 5 5
5 5 5 4 4 3 3 3 3 3 3 4 5 5 6 8 10 10 11 12 12 12 14 14 15 15 14 14 14 14 13 13 12 12 11 10 8 8 7 6 6 6 5
5 5 5 5 4 4 3 3 3 4 4 4 4 5 5 6 9 9 10 11 11 12 13 13 14 14 14 14 13 13 13 13 12 12 12 11 10 10 7 7 7 6 5
4 4 5 5 4 5 5 4 4 4 4 4 4 5 6 6 7 8 8 9 10 11 12 13 13 13 13 13 13 13 12 11 10 10 10 11 11 10 9 8 7 6 5
5 5 5 5 5 5 5 6 5 4 4 4 3 4 4 5 5 6 8 9 8 9 9 11 12 12 11 11 12 12 11 11 10 8 9 9 11 11 10 7 7 7 5
6 6 6 6 5 5 6 6 6 6 5 5 4 3 3 3 4 5 7 8 8 8 8 9 12 12 10 13 15 13 10 10 10 9 8 8 9 11 11 11 10 9 7
5 5 5 5 5 5 5 6 6 6 6 5 4 3 2 2 3 5 6 8 8 8 8 9 10 11 12 15 16 15 11 10 10 9 8 7 7 9 7 8 8 7 7
5 5 4 5 5 4 4 5 5 5 6 6 5 4 3 2 3 4 6 7 7 8 8 9 10 10 11 15 16 16 11 9 9 9 9 9 8 8 9 7 6 4 3
4 4 4 4 4 4 4 5 5 5 5 6 5 5 4 3 3 4 5 6 6 7 7 8 9 10 11 15 17 16 10 8 9 8 8 9 9 11 13 9 8 6 3
3 4 4 4 4 4 3 4 5 5 5 6 6 5 4 4 4 4 4 4 5 6 6 7 8 9 10 15 18 17 9 9 8 7 8 10 11 13 14 10 9 8 6
4 4 5 4 4 4 3 4 5 5 5 6 6 6 5 4 4 4 4 4 4 5 6 6 6 8 9 14 18 18 10 9 8 8 7 7 13 14 13 10 8 9 9
4 4 4 4 4 4 3 4 5 5 6 6 6 6 5 4 3 3 3 4 4 5 5 6 6 5 7 10 15 18 14 12 9 8 7 8 14 14 12 8 9 12 10
3 3 4 5 5 4 3 4 5 5 6 6 6 6 6 4 3 3 4 4 4 4 5 5 5 5 5 7 12 16 15 13 8 7 10 12 14 12 9 11 13 11 6
4 3 4 5 5 5 4 4 4 5 6 6 6 6 5 4 3 2 3 4 4 4 4 5 5 5 5 5 7 8 9 10 9 8 11 14 13 9 10 9 7 5 5
4 4 4 5 5 5 5 5 4 4 5 6 6 6 4 4 2 2 3 4 4 6 6 5 5 6 6 7 9 9 8 8 9 10 7 6 7 6 5 5 5 4 5
4 4 5 5 5 5 5 5 4 4 5 6 6 4 4 3 1 1 2 2 3 5 6 6 6 5 6 10 11 11 12 14 16 11 8 8 8 7 7 6 5 4 4
Wind_Direction
247 232 217 201 203 199 193 197 196 191 179 178 176 173 175 169 170 175 169 167 166 166 162 163 167 163 165 170 168 162 165 166 152 131 145 251 224 210 204 197 186 193 200
257 225 212 200 201 200 197 199 195 190 185 185 181 174 168 172 171 172 175 171 168 167 166 165 168 168 167 171 176 164 163 170 157 150 153 214 263 248 214 197 199 208 201
258 239 211 201 199 205 201 203 196 191 188 181 174 166 167 169 173 177 182 176 170 169 167 169 169 172 170 175 181 172 167 172 176 173 167 169 210 235 230 211 204 207 208
259 261 238 209 204 204 208 203 197 197 190 181 179 178 183 187 184 176 179 179 175 172 172 172 174 175 175 176 181 176 168 165 176 197 211 192 165 157 226 252 221 213 214
243 245 251 232 221 198 194 208 202 199 189 186 186 185 191 190 177 173 178 184 181 180 176 177 177 178 180 180 181 176 173 175 177 181 185 209 223 193 172 228 243 238 227
242 236 262 260 248 202 192 205 205 200 196 193 191 192 193 190 181 178 184 185 182 183 181 181 180 181 182 184 184 181 179 182 184 185 180 173 176 196 191 210 225 231 235
314 233 257 243 258 231 209 209 211 208 201 201 200 199 198 194 190 183 186 185 182 183 186 184 183 184 185 184 182 183 184 184 187 189 192 191 197 185 181 189 215 229 237
359 353 285 256 235 245 243 230 220 217 209 205 209 205 199 197 194 189 187 190 186 184 183 185 184 185 185 187 185 187 188 187 191 194 191 194 201 195 188 184 184 220 256
355 350 342 316 258 232 238 247 236 227 218 210 214 209 202 199 196 191 191 192 185 182 180 185 189 188 187 187 187 194 190 188 193 196 196 196 196 192 190 182 174 179 218
358 352 339 323 317 275 257 257 247 240 230 218 215 219 208 203 197 193 196 195 188 181 180 185 190 189 189 189 189 191 190 189 193 191 194 199 197 192 189 188 189 187 194
359 356 347 334 330 334 303 266 249 252 245 237 227 222 219 208 200 197 199 196 190 184 183 186 188 190 191 190 192 194 190 193 195 193 196 200 192 191 191 189 192 199 195
346 346 346 344 341 343 326 306 289 268 260 252 247 226 226 211 203 203 200 196 193 189 185 184 187 190 192 191 192 195 195 196 197 197 195 199 194 195 192 192 197 202 199
341 342 344 349 343 333 325 315 308 313 297 264 242 229 220 211 206 208 205 196 193 192 188 186 189 190 190 192 194 195 197 198 199 197 196 196 193 199 195 191 197 202 201
329 333 334 339 343 338 331 327 328 328 310 291 250 237 218 212 212 211 206 197 194 194 194 190 190 189 189 192 193 194 195 197 199 198 195 193 195 197 191 193 195 189 187
335 334 336 337 343 347 343 341 335 335 319 303 286 258 236 218 210 213 206 197 195 195 193 190 187 187 190 193 191 192 191 190 193 194 196 194 189 186 186 189 187 181 186
328 336 338 337 338 339 339 339 339 339 335 322 305 292 261 228 215 219 201 193 195 192 192 194 188 189 193 188 183 183 184 186 188 191 190 186 184 184 183 180 177 178 185
326 331 332 329 325 327 330 329 329 331 332 318 309 310 299 266 232 221 202 194 196 193 194 197 193 193 190 180 178 179 184 187 189 187 183 181 179 171 169 163 158 166 178
325 322 322 319 317 323 326 322 322 323 323 317 308 311 293 269 260 222 208 202 195 195 197 197 197 195 189 178 177 176 182 186 189 187 183 179 174 170 161 154 153 159 166
308 311 309 305 310 317 322 322 317 315 316 317 312 306 295 278 273 241 215 206 196 197 199 196 193 194 190 178 175 173 186 185 185 181 178 176 175 170 158 158 159 155 147
326 323 317 312 314 316 325 320 312 313 314 311 306 302 299 277 263 249 229 214 201 198 194 197 194 192 192 180 175 173 184 183 181 176 176 174 171 170 163 167 169 172 170
314 320 315 310 308 313 322 313 314 314 311 308 305 302 294 275 264 251 237 212 198 191 191 191 192 190 189 181 177 176 183 182 179 179 177 176 166 167 168 168 177 173 157
313 322 320 311 308 307 310 309 308 311 313 311 308 299 294 282 272 239 232 213 193 188 189 187 184 186 183 180 182 180 180 173 176 179 174 171 162 161 161 162 155 146 143
296 308 307 310 310 310 310 303 304 312 315 314 311 305 299 290 266 231 222 207 193 189 189 184 183 182 179 176 177 178 174 166 166 165 159 154 152 150 152 149 147 145 147
280 284 291 298 303 308 309 295 300 310 312 309 306 302 297 293 268 238 221 207 198 194 188 186 185 181 176 169 167 169 163 152 145 143 141 139 140 136 138 142 143 149 156
274 274 273 279 287 297 297 295 301 310 307 303 302 301 297 292 265 255 236 219 211 201 195 196 192 187 191 184 169 166 162 159 151 142 138 141 144 146 147 144 141 143 148
268 270 270 273 282 289 290 291 294 294 298 299 299 298 297 289 265 253 287 249 211 200 196 194 193 193 182 167 166 161 155 150 149 145 154 159 160 162 161 156 155 154 157
Height
1408 1410 1412 1413 1416 1418 1420 1422 1425 1429 1432 1436 1439 1443 1446 1451 1456 1460 1463 1467 1472 1477 1481 1485 1489 1493 1496 1500 1503 1506 1510 1512 1514 1517 1518 1520 1520 1521 1522 1522 1522 1523 1523
1404 1405 1406 1408 1410 1413 1415 1417 1420 1424 1427 1431 1434 1438 1443 1447 1451 1456 1460 1463 1467 1472 1476 1481 1485 1489 1493 1496 1500 1503 1506 1509 1511 1513 1515 1517 1519 1518 1519 1519 1519 1520 1520
1400 1401 1402 1404 1405 1408 1411 1413 1415 1419 1422 1426 1430 1434 1439 1443 1446 1450 1454 1458 1462 1467 1472 1476 1480 1485 1488 1492 1495 1499 1501 1504 1507 1510 1512 1513 1514 1515 1516 1516 1516 1517 1517
1397 1397 1399 1399 1401 1404 1407 1409 1411 1414 1417 1421 1425 1428 1432 1435 1439 1444 1449 1454 1458 1462 1468 1472 1476 1480 1484 1488 1491 1495 1497 1500 1502 1506 1508 1510 1511 1512 1512 1513 1513 1513 1514
1395 1395 1396 1397 1398 1400 1402 1405 1407 1409 1412 1416 1419 1423 1427 1431 1435 1440 1445 1449 1454 1458 1462 1467 1471 1475 1479 1483 1487 1490 1493 1496 1498 1501 1503 1506 1507 1508 1509 1509 1510 1510 1510
1393 1393 1394 1395 1396 1397 1399 1401 1403 1405 1408 1411 1414 1418 1422 1425 1429 1434 1439 1444 1448 1453 1457 1462 1466 1470 1474 1478 1482 1485 1489 1491 1494 1497 1499 1501 1502 1504 1505 1506 1506 1507 1507
1391 1391 1391 1392 1393 1394 1395 1397 1399 1401 1403 1406 1409 1412 1416 1420 1424 1428 1433 1438 1442 1446 1451 1456 1461 1465 1469 1473 1477 1481 1484 1487 1490 1492 1494 1497 1498 1500 1502 1503 1503 1503 1504
1390 1390 1390 1390 1391 1391 1392 1393 1395 1397 1399 1401 1404 1408 1411 1414 1418 1423 1427 1433 1436 1441 1446 1451 1455 1460 1464 1468 1472 1476 1479 1482 1485 1488 1490 1492 1494 1496 1497 1499 1500 1500 1500
1390 1389 1389 1389 1389 1389 1389 1390 1391 1393 1395 1397 1400 1403 1406 1409 1413 1418 1423 1428 1431 1436 1441 1446 1450 1455 1459 1463 1466 1470 1474 1477 1480 1482 1485 1487 1489 1491 1493 1494 1495 1497 1495
1390 1389 1388 1388 1388 1388 1388 1388 1388 1390 1391 1393 1396 1398 1401 1405 1409 1413 1418 1423 1426 1430 1435 1440 1445 1449 1453 1457 1461 1464 1468 1471 1474 1477 1480 1482 1484 1486 1488 1489 1491 1492 1492
1389 1389 1388 1387 1387 1386 1385 1386 1386 1387 1388 1389 1391 1393 1396 1400 1404 1408 1413 1418 1421 1425 1430 1434 1439 1443 1447 1451 1455 1458 1462 1465 1468 1471 1474 1476 1479 1481 1483 1484 1485 1486 1487
1389 1388 1387 1386 1385 1385 1384 1383 1383 1384 1384 1385 1387 1389 1392 1395 1399 1403 1408 1412 1416 1420 1424 1429 1433 1437 1441 1445 1448 1452 1456 1459 1462 1465 1468 1470 1473 1475 1477 1479 1480 1481 1482
1389 1388 1386 1385 1384 1383 1383 1382 1381 1381 1381 1382 1383 1385 1387 1390 1394 1398 1402 1407 1410 1414 1419 1423 1427 1431 1435 1439 1443 1447 1450 1453 1456 1459 1461 1464 1467 1469 1471 1473 1474 1476 1477
1388 1387 1385 1384 1383 1383 1382 1380 1379 1379 1379 1379 1379 1381 1383 1386 1389 1393 1397 1401 1405 1409 1413 1417 1421 1425 1429 1433 1437 1441 1444 1447 1450 1453 1456 1458 1461 1463 1465 1467 1469 1470 1472
1387 1386 1384 1383 1381 1381 1380 1378 1377 1376 1376 1376 1376 1377 1380 1382 1384 1388 1392 1395 1399 1403 1407 1411 1415 1419 1423 1427 1431 1435 1438 1441 1445 1448 1450 1453 1455 1457 1460 1462 1463 1465 1466
1386 1385 1383 1381 1380 1379 1378 1376 1374 1374 1373 1372 1373 1375 1376 1378 1380 1383 1386 1390 1394 1398 1402 1405 1409 1413 1417 1420 1425 1429 1432 1436 1439 1442 1445 1447 1450 1452 1455 1456 1458 1460 1461
1384 1383 1381 1380 1379 1377 1376 1374 1373 1372 1371 1371 1371 1371 1373 1374 1377 1379 1382 1385 1388 1392 1396 1399 1403 1407 1411 1415 1419 1423 1427 1430 1433 1436 1439 1442 1444 1447 1449 1451 1453 1454 1456
1382 1381 1379 1378 1377 1375 1374 1372 1371 1370 1369 1368 1368 1368 1369 1371 1373 1375 1377 1380 1383 1387 1390 1394 1397 1401 1405 1409 1413 1417 1421 1425 1427 1430 1433 1436 1438 1441 1444 1446 1447 1449 1450
1380 1379 1377 1376 1374 1373 1372 1370 1369 1368 1367 1366 1366 1366 1366 1367 1368 1370 1373 1375 1378 1381 1385 1388 1391 1395 1399 1403 1407 1412 1415 1419 1422 1425 1428 1431 1433 1436 1438 1441 1442 1443 1445
1377 1376 1375 1373 1372 1370 1369 1368 1367 1366 1365 1364 1364 1363 1363 1364 1365 1367 1369 1371 1374 1377 1380 1383 1386 1390 1393 1397 1401 1406 1409 1413 1416 1419 1422 1425 1428 1431 1433 1435 1437 1438 1439
1375 1373 1372 1370 1369 1368 1367 1366 1364 1363 1362 1361 1361 1361 1361 1361 1362 1363 1365 1367 1370 1372 1375 1379 1382 1385 1388 1392 1396 1400 1403 1406 1410 1413 1416 1419 1423 1426 1428 1430 1432 1434 1435
1371 1370 1369 1367 1366 1365 1364 1362 1361 1360 1359 1358 1357 1357 1357 1357 1358 1360 1361 1363 1365 1368 1371 1374 1377 1380 1384 1387 1390 1394 1398 1401 1405 1407 1411 1414 1418 1421 1424 1426 1428 1430 1432
1368 1367 1365 1364 1363 1362 1361 1359 1358 1357 1356 1355 1354 1353 1353 1354 1354 1356 1357 1359 1361 1363 1366 1369 1372 1375 1379 1382 1385 1389 1393 1396 1400 1403 1407 1410 1414 1416 1419 1422 1424 1426 1427
1364 1363 1362 1360 1359 1358 1357 1356 1355 1354 1352 1351 1350 1350 1350 1350 1351 1352 1353 1355 1357 1359 1362 1364 1367 1370 1373 1376 1380 1383 1388 1392 1395 1399 1402 1406 1409 1412 1415 1417 1420 1422 1423
1359 1358 1357 1356 1355 1355 1354 1353 1351 1350 1349 1348 1347 1347 1347 1346 1347 1348 1350 1352 1354 1356 1358 1359 1362 1365 1368 1371 1375 1378 1382 1386 1390 1394 1397 1401 1404 1407 1410 1413 1415 1418 1420
1354 1353 1353 1352 1351 1350 1349 1349 1348 1347 1346 1344 1344 1343 1343 1343 1344 1345 1347 1348 1351 1353 1355 1357 1359 1361 1365 1368 1371 1374 1378 1382 1386 1390 1392 1395 1398 1402 1405 1408 1411 1413 1416